| time (UTC) | temp F | wind direction | speed MPH | gust MPH | rain 1hr in | rain 24hr in | rain mn in | humidity % | barometer mb |
| 20260503182306 | 64 | 160 | 6.0 | 7.0 | 0.00 | 0.08 | 0.01 | 75 | 1012.0 |
| 20260503180806 | 64 | 133 | 4.0 | 9.0 | 0.00 | 0.08 | 0.01 | 74 | 1012.0 |
| 20260503175806 | 64 | 170 | 9.0 | 11.0 | 0.00 | 0.08 | 0.01 | 74 | 1012.0 |
| 20260503173806 | 63 | 188 | 7.0 | 14.0 | 0.00 | 0.08 | 0.01 | 73 | 1011.9 |
| 20260503173306 | 64 | 184 | 8.0 | 9.0 | 0.00 | 0.08 | 0.01 | 74 | 1012.0 |
| 20260503170806 | 63 | 202 | 12.0 | 15.0 | 0.00 | 0.08 | 0.01 | 74 | 1011.8 |
| 20260503150806 | 61 | 198 | 12.0 | 16.0 | 0.01 | 0.08 | 0.01 | 81 | 1012.3 |
| 20260503150307 | 61 | 215 | 10.0 | 15.0 | 0.01 | 0.08 | 0.01 | 80 | 1012.3 |
| 20260503130806 | 66 | 168 | 11.0 | 21.0 | 0.00 | 0.07 | 0.00 | 61 | 1012.4 |
| 20260503110806 | 72 | 151 | 13.0 | 24.0 | 0.00 | 0.07 | 0.00 | 36 | 1012.1 |
| 20260503080807 | 71 | 153 | 14.0 | 14.0 | 0.00 | 0.07 | 0.00 | 43 | 1012.0 |
| 20260503070807 | 66 | 147 | 6.0 | 11.0 | 0.00 | 0.07 | 0.00 | 54 | 1012.1 |
| 20260503053807 | 61 | 22 | 5.0 | 15.0 | 0.00 | 0.07 | 0.00 | 68 | 1012.0 |
| 20260503052808 | 60 | 125 | 8.0 | 14.0 | 0.00 | 0.07 | 0.00 | 70 | 1011.9 |
| 20260503050807 | 60 | 111 | 8.0 | 13.0 | 0.00 | 0.07 | 0.00 | 73 | 1012.0 |
| 20260503050308 | 60 | 130 | 7.0 | 13.0 | 0.00 | 0.07 | 0.00 | 72 | 1011.9 |
| 20260503043807 | 60 | 90 | 8.0 | 14.0 | 0.00 | 0.07 | 0.00 | 75 | 1011.9 |
| 20260503041308 | 59 | 135 | 11.0 | 14.0 | 0.00 | 0.07 | 0.00 | 77 | 1011.9 |
| 20260503040807 | 59 | 135 | 10.0 | 14.0 | 0.00 | 0.07 | 0.00 | 78 | 1011.9 |
| 20260503034900 | 59 | 94 | 7.0 | 14.0 | 0.00 | 0.07 | 0.00 | 82 | 1012.0 |
| 20260503034808 | 59 | 94 | 7.0 | 14.0 | 0.00 | 0.07 | 0.00 | 82 | 1012.0 |
| 20260503033807 | 59 | 151 | 10.0 | 12.0 | 0.00 | 0.07 | 0.00 | 85 | 1012.1 |
| 20260503030807 | 58 | 127 | 2.0 | 4.0 | 0.00 | 0.07 | 0.00 | 90 | 1012.1 |
| 20260503025810 | 58 | 293 | 0.0 | 4.0 | 0.00 | 0.07 | 0.00 | 90 | 1012.1 |
| 20260503023807 | 58 | 94 | 1.0 | 4.0 | 0.00 | 0.07 | 0.00 | 90 | 1012.6 |
| 20260503023308 | 58 | 136 | 4.0 | 5.0 | 0.00 | 0.07 | 0.00 | 90 | 1012.6 |
| 20260503020807 | 58 | 320 | 0.0 | 5.0 | 0.00 | 0.07 | 0.00 | 91 | 1012.6 |
| 20260503014308 | 58 | 348 | 1.0 | 6.0 | 0.00 | 0.07 | 0.00 | 91 | 1012.8 |
| 20260503013807 | 58 | 143 | 4.0 | 5.0 | 0.00 | 0.07 | 0.00 | 91 | 1012.9 |
| 20260503011808 | 58 | 84 | 2.0 | 4.0 | 0.00 | 0.07 | 0.00 | 91 | 1013.2 |
| 20260503010807 | 58 | 123 | 0.0 | 0.0 | 0.00 | 0.07 | 0.00 | 90 | 1013.4 |
| 20260503005308 | 58 | 28 | 1.0 | 4.0 | 0.00 | 0.07 | 0.00 | 90 | 1013.4 |
| 20260503003807 | 58 | 163 | 0.0 | 5.0 | 0.00 | 0.07 | 0.00 | 89 | 1013.5 |
| 20260503002808 | 58 | 45 | 3.0 | 7.0 | 0.00 | 0.07 | 0.00 | 89 | 1013.8 |
| 20260503000807 | 58 | 345 | 3.0 | 6.0 | 0.00 | 0.07 | 0.00 | 89 | 1014.2 |
| 20260503000308 | 59 | 327 | 4.0 | 9.0 | 0.00 | 0.07 | 0.00 | 89 | 1014.2 |
| 20260502233808 | 59 | 122 | 12.0 | 19.0 | 0.00 | 0.07 | 0.00 | 87 | 1014.3 |
| 20260502231308 | 60 | 137 | 2.0 | 6.0 | 0.00 | 0.07 | 0.00 | 87 | 1014.0 |
| 20260502230808 | 60 | 118 | 5.0 | 6.0 | 0.00 | 0.07 | 0.00 | 87 | 1014.0 |
| 20260502224808 | 60 | 84 | 3.0 | 4.0 | 0.00 | 0.07 | 0.07 | 86 | 1014.2 |
| 20260502223808 | 60 | 113 | 2.0 | 2.0 | 0.00 | 0.07 | 0.07 | 86 | 1014.3 |
| 20260502220808 | 59 | 46 | 1.0 | 2.0 | 0.00 | 0.07 | 0.07 | 87 | 1014.4 |
| 20260502215808 | 59 | 81 | 0.0 | 5.0 | 0.00 | 0.07 | 0.07 | 87 | 1014.3 |
| 20260502213808 | 59 | 88 | 2.0 | 8.0 | 0.00 | 0.07 | 0.07 | 87 | 1014.3 |
| 20260502213309 | 59 | 59 | 2.0 | 7.0 | 0.00 | 0.07 | 0.07 | 87 | 1014.3 |
| 20260502210808 | 59 | 300 | 3.0 | 7.0 | 0.00 | 0.07 | 0.07 | 87 | 1014.6 |
| 20260502204309 | 59 | 355 | 6.0 | 12.0 | 0.01 | 0.07 | 0.07 | 87 | 1014.9 |
| 20260502203808 | 59 | 98 | 4.0 | 10.0 | 0.01 | 0.07 | 0.07 | 87 | 1014.8 |
| 20260502201809 | 59 | 158 | 2.0 | 10.0 | 0.04 | 0.07 | 0.07 | 86 | 1015.1 |
| 20260502200808 | 59 | 57 | 5.0 | 8.0 | 0.05 | 0.07 | 0.07 | 86 | 1015.3 |
| 20260502195309 | 59 | 33 | 4.0 | 6.0 | 0.06 | 0.07 | 0.07 | 85 | 1015.4 |
| 20260502193808 | 60 | 324 | 1.0 | 7.0 | 0.06 | 0.06 | 0.06 | 83 | 1015.7 |
| 20260502190808 | 62 | 324 | 8.0 | 12.0 | 0.02 | 0.02 | 0.02 | 80 | 1015.7 |
| 20260502190309 | 62 | 275 | 10.0 | 11.0 | 0.01 | 0.01 | 0.01 | 76 | 1015.6 |
| 20260502183808 | 67 | 226 | 16.0 | 22.0 | 0.00 | 0.00 | 0.00 | 65 | 1016.2 |